Eastsound, WA

1:02 AM PST on February 14, 2016 (GMT -0800)
Orcas Island

Weather History for KORS - September, 2013

Change the Weather History Date:

Wednesday, September 25, 2013

  Actual Average (KBLI) Record (KBLI)
Temperature  
Mean Temperature 54 °F 55 °F  
Max Temperature 59 °F 65 °F 76 °F (1991)
Min Temperature 50 °F 45 °F 31 °F (1972)
Degree Days  
Heating Degree Days 10 10  
Month to date heating degree days 176  
Cooling Degree Days 0 0  
Month to date cooling degree days 0  
Year to date cooling degree days 40  
Growing Degree Days 4 (Base 50)    
Moisture  
Dew Point 48 °F    
Average Humidity 86    
Maximum Humidity 100    
Minimum Humidity 63    
Precipitation  
Precipitation 1.30 in 0.06 in 0.47 in (1956)
Month to date precipitation 1.42  
Year to date precipitation 21.77  
Sea Level Pressure  
Sea Level Pressure 29.94 in    
Wind  
Wind Speed 7 mph (NNW)    
Max Wind Speed 16 mph    
Max Gust Speed 23 mph    
Visibility 9 miles    
Events Rain    
T = Trace of Precipitation, MM = Missing Value Source: NWS Daily Summary

Daily Weather History Graph

Daily Weather History Graph

Search for Another Location

Airport or City:

Trip Planner

Search our weather history database for the weather conditions in past years. The results will help you decide how hot, cold, wet, or windy it might be!

Date:

Astronomy

Sep. 25, 2013 Rise Set
Actual Time 7:02 AM PDT 7:02 PM PDT
Civil Twilight 6:31 AM PDT 7:33 PM PDT
Nautical Twilight 5:54 AM PDT 8:10 PM PDT
Astronomical Twilight 5:16 AM PDT 8:48 PM PDT
Moon 10:47 PM PDT (9/25) 1:39 PM PDT (9/25)
Length of Visible Light 13h 02m
Length of Day
11h 59m
Waning Gibbous, 63% of the Moon is Illuminated
Sep 25
Waning Gibbous
Sep 26
Last Quarter
Oct 4
New
Oct 11
First Quarter
Oct 18
Full

Hourly Weather History & Observations

Time (PDT) Temp. Dew Point Humidity Pressure Visibility Wind Dir Wind Speed Gust Speed Precip Events Conditions
12:15 AM 51.8 °F 50.0 °F 94% 29.86 in 10.0 mi NNW 8.1 mph - N/A   Mostly Cloudy
12:35 AM 51.8 °F 50.0 °F 94% 29.86 in 5.0 mi NNW 6.9 mph - N/A Rain Rain
12:55 AM 51.8 °F 50.0 °F 94% 29.86 in 5.0 mi NNW 9.2 mph - N/A Rain Rain
1:15 AM 51.8 °F 50.0 °F 94% 29.87 in 2.0 mi North 5.8 mph - 0.14 in Rain Heavy Rain
1:35 AM 50.0 °F 50.0 °F 100% 29.87 in 2.5 mi NW 6.9 mph - 0.30 in Rain Heavy Rain
1:55 AM 50.0 °F 50.0 °F 100% 29.87 in 2.5 mi NW 6.9 mph - 0.50 in Rain Heavy Rain
2:15 AM 50.0 °F 50.0 °F 100% 29.87 in 1.2 mi NNW 8.1 mph 16.1 mph 0.25 in Rain Heavy Rain
2:35 AM 50.0 °F 50.0 °F 100% 29.87 in 2.0 mi WSW 5.8 mph - 0.64 in Rain Heavy Rain
2:55 AM 50.0 °F 50.0 °F 100% 29.87 in 4.0 mi North - - 0.80 in Rain Rain
3:15 AM 50.0 °F 50.0 °F 100% 29.88 in 6.0 mi NNW 4.6 mph - N/A Rain Light Rain
3:35 AM 50.0 °F 50.0 °F 100% 29.88 in 6.0 mi NNW 3.5 mph - N/A Rain Light Rain
3:55 AM 50.0 °F 50.0 °F 100% 29.89 in 7.0 mi Calm Calm - N/A Rain Light Rain
4:15 AM 50.0 °F 50.0 °F 100% 29.88 in 10.0 mi Calm Calm - N/A Rain Light Rain
4:35 AM 50.0 °F 48.2 °F 94% 29.89 in 9.0 mi NW 5.8 mph - N/A Rain Light Rain
4:55 AM 50.0 °F 48.2 °F 94% 29.89 in 10.0 mi NNW 8.1 mph - N/A Rain Light Rain
5:15 AM 50.0 °F 48.2 °F 94% 29.89 in 10.0 mi NNW 6.9 mph - N/A Rain Light Rain
5:35 AM 50.0 °F 48.2 °F 94% 29.89 in 10.0 mi NNW 6.9 mph - N/A Rain Light Rain
5:55 AM 50.0 °F 48.2 °F 94% 29.89 in 10.0 mi NW 5.8 mph - N/A Rain Light Rain
6:15 AM 51.8 °F 48.2 °F 88% 29.89 in 10.0 mi North 9.2 mph - N/A Rain Light Rain
6:35 AM 51.8 °F 48.2 °F 88% 29.90 in 10.0 mi North 9.2 mph - N/A   Overcast
6:55 AM 51.8 °F 48.2 °F 88% 29.90 in 10.0 mi North 11.5 mph - N/A Rain Light Rain
7:15 AM 51.8 °F 48.2 °F 88% 29.91 in 10.0 mi North 12.7 mph 17.3 mph N/A Rain Light Rain
7:35 AM 51.8 °F 48.2 °F 88% 29.91 in 10.0 mi NNW 9.2 mph - N/A   Mostly Cloudy
7:55 AM 51.8 °F 48.2 °F 88% 29.92 in 10.0 mi North 10.4 mph - N/A   Mostly Cloudy
8:15 AM 51.8 °F 48.2 °F 88% 29.93 in 10.0 mi North 8.1 mph - N/A   Overcast
8:35 AM 51.8 °F 48.2 °F 88% 29.93 in 10.0 mi North 10.4 mph - N/A   Overcast
8:55 AM 51.8 °F 48.2 °F 88% 29.94 in 10.0 mi North 9.2 mph - N/A   Overcast
9:15 AM 51.8 °F 48.2 °F 88% 29.95 in 10.0 mi North 12.7 mph - N/A   Overcast
9:35 AM 51.8 °F 48.2 °F 88% 29.95 in 10.0 mi North 10.4 mph - N/A   Overcast
9:55 AM 51.8 °F 48.2 °F 88% 29.95 in 10.0 mi North 12.7 mph 18.4 mph N/A   Overcast
10:15 AM 51.8 °F 48.2 °F 88% 29.95 in 10.0 mi North 12.7 mph - N/A   Overcast
10:35 AM 51.8 °F 48.2 °F 88% 29.95 in 10.0 mi North 12.7 mph 18.4 mph N/A   Overcast
10:55 AM 51.8 °F 48.2 °F 88% 29.96 in 10.0 mi NNW 13.8 mph 18.4 mph N/A   Overcast
11:15 AM 51.8 °F 48.2 °F 88% 29.96 in 10.0 mi NNW 15.0 mph 20.7 mph N/A   Overcast
11:35 AM 53.6 °F 48.2 °F 82% 29.96 in 10.0 mi NNW 16.1 mph 21.9 mph N/A   Mostly Cloudy
11:55 AM 53.6 °F 48.2 °F 82% 29.96 in 10.0 mi NNW 16.1 mph 23.0 mph N/A   Mostly Cloudy
12:15 PM 53.6 °F 48.2 °F 82% 29.96 in 10.0 mi NNW 13.8 mph 17.3 mph N/A   Clear
12:35 PM 53.6 °F 48.2 °F 82% 29.96 in 10.0 mi NNW 13.8 mph 19.6 mph N/A   Clear
12:55 PM 53.6 °F 48.2 °F 82% 29.96 in 10.0 mi NNW 13.8 mph 19.6 mph N/A   Clear
1:15 PM 53.6 °F 48.2 °F 82% 29.96 in 10.0 mi North 12.7 mph 18.4 mph N/A   Clear
1:55 PM 55.4 °F 48.2 °F 77% 29.96 in 10.0 mi North 11.5 mph 17.3 mph N/A   Clear
2:15 PM 55.4 °F 48.2 °F 77% 29.96 in 10.0 mi NNW 5.8 mph - N/A   Clear
2:35 PM 55.4 °F 48.2 °F 77% 29.96 in 10.0 mi NW 5.8 mph - N/A   Clear
2:55 PM 55.4 °F 48.2 °F 77% 29.96 in 10.0 mi NNW 8.1 mph - N/A   Clear
3:15 PM 57.2 °F 48.2 °F 72% 29.96 in 10.0 mi NNW 8.1 mph - N/A   Clear
3:35 PM 57.2 °F 48.2 °F 72% 29.95 in 10.0 mi North 10.4 mph - N/A   Clear
3:55 PM 57.2 °F 48.2 °F 72% 29.95 in 10.0 mi North 3.5 mph - N/A   Clear
4:15 PM 57.2 °F 48.2 °F 72% 29.95 in 10.0 mi NNW 5.8 mph - N/A   Clear
4:35 PM 59.0 °F 48.2 °F 67% 29.95 in 10.0 mi NW 4.6 mph - N/A Rain Light Rain
4:55 PM 59.0 °F 46.4 °F 63% 29.95 in 10.0 mi Calm Calm - N/A   Clear
5:15 PM 59.0 °F 46.4 °F 63% 29.96 in 10.0 mi West 3.5 mph - N/A Rain Light Rain
5:35 PM 59.0 °F 46.4 °F 63% 29.95 in 10.0 mi WSW 4.6 mph - N/A   Clear
5:55 PM 59.0 °F 48.2 °F 67% 29.95 in 10.0 mi SSW 4.6 mph - N/A Rain Light Rain
6:15 PM 59.0 °F 48.2 °F 67% 29.95 in 10.0 mi North - - N/A   Clear
6:35 PM 57.2 °F 48.2 °F 72% 29.96 in 10.0 mi Calm Calm - N/A   Clear
6:55 PM 55.4 °F 48.2 °F 77% 29.96 in 10.0 mi Calm Calm - N/A   Clear
7:15 PM 51.8 °F 48.2 °F 88% 29.96 in 10.0 mi Calm Calm - N/A   Clear
7:35 PM 50.0 °F 48.2 °F 94% 29.96 in 10.0 mi Calm Calm - N/A   Clear
7:55 PM 50.0 °F 46.4 °F 87% 29.96 in 10.0 mi Calm Calm - N/A Rain Light Rain
8:15 PM 50.0 °F 48.2 °F 94% 29.97 in 10.0 mi Calm Calm - N/A Rain Light Rain
8:35 PM 51.8 °F 48.2 °F 88% 29.97 in 10.0 mi North - - N/A Rain Light Rain
8:55 PM 51.8 °F 48.2 °F 88% 29.97 in 10.0 mi South 3.5 mph - N/A Rain Light Rain
9:15 PM 51.8 °F 46.4 °F 82% 29.98 in 10.0 mi South 3.5 mph - N/A Rain Light Rain
9:35 PM 51.8 °F 46.4 °F 82% 29.98 in 10.0 mi Calm Calm - N/A Rain Light Rain
9:55 PM 51.8 °F 46.4 °F 82% 29.98 in 10.0 mi South 3.5 mph - N/A Rain Light Rain
10:15 PM 51.8 °F 46.4 °F 82% 29.99 in 10.0 mi Calm Calm - N/A Rain Light Rain
10:35 PM 51.8 °F 46.4 °F 82% 29.99 in 10.0 mi South 4.6 mph - N/A Rain Light Rain
10:55 PM 50.0 °F 46.4 °F 87% 29.99 in 10.0 mi South 3.5 mph - N/A Rain Light Rain
11:15 PM 50.0 °F 46.4 °F 87% 29.99 in 10.0 mi South 6.9 mph - N/A Rain Light Rain
11:35 PM 50.0 °F 46.4 °F 87% 30.00 in 10.0 mi South 5.8 mph - N/A Rain Light Rain
11:55 PM 50.0 °F 46.4 °F 87% 30.00 in 10.0 mi South 4.6 mph - N/A   Clear